Time,TemperatureF,DewpointF,PressureIn,WindDirection,WindDirectionDegrees,WindSpeedMPH,WindSpeedGustMPH,Humidity,HourlyPrecipIn,Conditions,Clouds,dailyrainin,SoftwareType,DateUTC
2013-06-05 00:02:00,56.8,54.0,30.03,SE,131,0.0,1.0,91,0.00,,,0.00,weatherlink.com 1.10,2013-06-05 04:02:00,
2013-06-05 00:17:00,56.8,54.0,30.03,SE,131,0.0,0.0,90,0.00,,,0.00,weatherlink.com 1.10,2013-06-05 04:17:00,
2013-06-05 00:32:00,56.6,55.0,30.03,WNW,297,0.0,0.0,93,0.00,,,0.00,weatherlink.com 1.10,2013-06-05 04:32:00,
2013-06-05 00:47:00,57.2,55.0,30.04,WNW,290,0.0,1.0,93,0.00,,,0.00,weatherlink.com 1.10,2013-06-05 04:47:00,
2013-06-05 01:02:00,57.4,55.0,30.04,WNW,291,0.0,0.0,93,0.00,,,0.00,weatherlink.com 1.10,2013-06-05 05:02:00,
2013-06-05 01:17:00,57.6,55.0,30.04,NE,35,0.0,1.0,92,0.00,,,0.00,weatherlink.com 1.10,2013-06-05 05:17:00,
2013-06-05 01:32:00,56.9,54.0,30.05,NNE,31,0.0,1.0,91,0.00,,,0.00,weatherlink.com 1.10,2013-06-05 05:32:00,
2013-06-05 01:47:00,57.1,54.0,30.05,East,86,3.0,4.0,90,0.00,,,0.00,weatherlink.com 1.10,2013-06-05 05:47:00,
2013-06-05 02:02:00,59.8,54.0,30.05,ESE,110,1.0,3.0,81,0.00,,,0.00,weatherlink.com 1.10,2013-06-05 06:02:00,
2013-06-05 02:17:00,58.4,53.0,30.05,SE,134,0.0,1.0,82,0.00,,,0.00,weatherlink.com 1.10,2013-06-05 06:17:00,
2013-06-05 02:32:00,62.8,52.0,30.06,NNE,18,7.0,11.0,69,0.00,,,0.00,weatherlink.com 1.10,2013-06-05 06:32:00,
2013-06-05 02:47:00,63.3,51.0,30.06,NNE,19,8.0,9.0,64,0.00,,,0.00,weatherlink.com 1.10,2013-06-05 06:47:00,
2013-06-05 03:02:00,62.3,50.0,30.07,WNW,301,2.0,6.0,65,0.00,,,0.00,weatherlink.com 1.10,2013-06-05 07:02:00,
2013-06-05 03:17:00,60.4,51.0,30.06,WNW,302,4.0,5.0,70,0.00,,,0.00,weatherlink.com 1.10,2013-06-05 07:17:00,
2013-06-05 03:32:00,59.4,50.0,30.06,NNE,16,6.0,8.0,72,0.00,,,0.00,weatherlink.com 1.10,2013-06-05 07:32:00,
2013-06-05 03:47:00,61.7,50.0,30.07,North,354,9.0,9.0,66,0.00,,,0.00,weatherlink.com 1.10,2013-06-05 07:47:00,
2013-06-05 04:03:00,61.6,50.0,30.08,NNW,335,7.0,10.0,67,0.00,,,0.00,weatherlink.com 1.10,2013-06-05 08:03:00,
2013-06-05 04:18:00,61.2,51.0,30.08,NNW,345,8.0,10.0,69,0.00,,,0.00,weatherlink.com 1.10,2013-06-05 08:18:00,
2013-06-05 04:33:00,61.0,51.0,30.08,NNE,19,10.0,10.0,70,0.00,,,0.00,weatherlink.com 1.10,2013-06-05 08:33:00,
2013-06-05 04:48:00,60.8,51.0,30.08,NNE,23,6.0,10.0,70,0.00,,,0.00,weatherlink.com 1.10,2013-06-05 08:48:00,
2013-06-05 05:03:00,60.5,51.0,30.09,North,1,6.0,8.0,72,0.00,,,0.00,weatherlink.com 1.10,2013-06-05 09:03:00,
2013-06-05 05:18:00,60.4,52.0,30.09,NNE,20,6.0,7.0,73,0.00,,,0.00,weatherlink.com 1.10,2013-06-05 09:18:00,
2013-06-05 05:33:00,60.9,52.0,30.09,North,6,6.0,8.0,73,0.00,,,0.00,weatherlink.com 1.10,2013-06-05 09:33:00,
2013-06-05 05:48:00,61.3,52.0,30.10,NE,37,8.0,10.0,71,0.00,,,0.00,weatherlink.com 1.10,2013-06-05 09:48:00,
2013-06-05 06:03:00,61.6,52.0,30.10,NNE,31,5.0,8.0,72,0.00,,,0.00,weatherlink.com 1.10,2013-06-05 10:03:00,
2013-06-05 06:18:00,61.7,53.0,30.11,NNE,24,6.0,7.0,72,0.00,,,0.00,weatherlink.com 1.10,2013-06-05 10:18:00,
2013-06-05 06:33:00,61.4,52.0,30.11,NE,43,6.0,8.0,70,0.00,,,0.00,weatherlink.com 1.10,2013-06-05 10:33:00,
2013-06-05 06:48:00,61.4,52.0,30.10,NE,35,6.0,7.0,72,0.00,,,0.00,weatherlink.com 1.10,2013-06-05 10:48:00,
2013-06-05 07:03:00,61.3,53.0,30.11,NNE,18,6.0,8.0,74,0.00,,,0.00,weatherlink.com 1.10,2013-06-05 11:03:00,
2013-06-05 07:18:00,61.9,52.0,30.11,ENE,58,5.0,8.0,70,0.00,,,0.00,weatherlink.com 1.10,2013-06-05 11:18:00,
2013-06-05 07:33:00,62.1,52.0,30.12,NE,43,6.0,7.0,70,0.00,,,0.00,weatherlink.com 1.10,2013-06-05 11:33:00,
2013-06-05 07:48:00,62.2,51.0,30.12,NE,44,5.0,7.0,68,0.00,,,0.00,weatherlink.com 1.10,2013-06-05 11:48:00,
2013-06-05 08:03:00,62.4,51.0,30.12,NNE,31,6.0,7.0,66,0.00,,,0.00,weatherlink.com 1.10,2013-06-05 12:03:00,
2013-06-05 08:18:00,62.7,51.0,30.12,NE,37,5.0,6.0,66,0.00,,,0.00,weatherlink.com 1.10,2013-06-05 12:18:00,
2013-06-05 08:33:00,62.0,53.0,30.13,NNE,12,9.0,10.0,73,0.00,,,0.00,weatherlink.com 1.10,2013-06-05 12:33:00,
2013-06-05 08:48:00,61.5,53.0,30.13,NNE,27,5.0,8.0,73,0.00,,,0.00,weatherlink.com 1.10,2013-06-05 12:48:00,
2013-06-05 09:03:00,61.7,51.0,30.14,NNE,25,6.0,7.0,69,0.00,,,0.00,weatherlink.com 1.10,2013-06-05 13:03:00,
2013-06-05 09:18:00,61.9,50.0,30.14,NE,41,4.0,6.0,65,0.00,,,0.00,weatherlink.com 1.10,2013-06-05 13:18:00,
2013-06-05 09:33:00,62.2,50.0,30.14,NNE,20,4.0,6.0,64,0.00,,,0.00,weatherlink.com 1.10,2013-06-05 13:33:00,
2013-06-05 09:48:00,62.4,49.0,30.15,NNE,13,4.0,6.0,62,0.00,,,0.00,weatherlink.com 1.10,2013-06-05 13:48:00,
2013-06-05 10:03:00,62.7,50.0,30.15,NNE,32,3.0,5.0,63,0.00,,,0.00,weatherlink.com 1.10,2013-06-05 14:03:00,
2013-06-05 10:18:00,63.0,51.0,30.15,ENE,70,3.0,4.0,64,0.00,,,0.00,weatherlink.com 1.10,2013-06-05 14:18:00,
2013-06-05 10:33:00,63.3,49.0,30.15,NE,50,2.0,4.0,59,0.00,,,0.00,weatherlink.com 1.10,2013-06-05 14:33:00,
2013-06-05 10:48:00,63.6,51.0,30.16,NE,39,2.0,5.0,63,0.00,,,0.00,weatherlink.com 1.10,2013-06-05 14:48:00,
2013-06-05 11:03:00,63.8,50.0,30.16,NE,41,3.0,5.0,62,0.00,,,0.00,weatherlink.com 1.10,2013-06-05 15:03:00,
2013-06-05 11:18:00,63.9,49.0,30.16,SSE,155,8.0,10.0,59,0.00,,,0.00,weatherlink.com 1.10,2013-06-05 15:18:00,
2013-06-05 11:33:00,65.5,51.0,30.16,SE,136,6.0,11.0,59,0.00,,,0.00,weatherlink.com 1.10,2013-06-05 15:33:00,
2013-06-05 11:48:00,65.9,51.0,30.15,SSE,160,7.0,13.0,59,0.00,,,0.00,weatherlink.com 1.10,2013-06-05 15:48:00,
2013-06-05 12:03:00,66.1,51.0,30.15,SSE,153,6.0,12.0,59,0.00,,,0.00,weatherlink.com 1.10,2013-06-05 16:03:00,
2013-06-05 12:18:00,66.0,52.0,30.15,South,190,8.0,11.0,60,0.00,,,0.00,weatherlink.com 1.10,2013-06-05 16:18:00,
2013-06-05 12:33:00,65.9,49.0,30.15,SE,141,6.0,15.0,55,0.00,,,0.00,weatherlink.com 1.10,2013-06-05 16:33:00,
2013-06-05 12:48:00,65.9,50.0,30.14,SSE,152,8.0,12.0,57,0.00,,,0.00,weatherlink.com 1.10,2013-06-05 16:48:00,
2013-06-05 13:03:00,66.0,50.0,30.14,SSE,158,9.0,12.0,56,0.00,,,0.00,weatherlink.com 1.10,2013-06-05 17:03:00,
2013-06-05 13:18:00,65.7,51.0,30.14,SE,134,6.0,13.0,60,0.00,,,0.00,weatherlink.com 1.10,2013-06-05 17:18:00,
2013-06-05 13:33:00,66.8,50.0,30.14,South,169,6.0,10.0,55,0.00,,,0.00,weatherlink.com 1.10,2013-06-05 17:33:00,
2013-06-05 13:48:00,66.8,53.0,30.14,SSW,207,6.0,10.0,61,0.00,,,0.00,weatherlink.com 1.10,2013-06-05 17:48:00,
2013-06-05 14:03:00,67.1,53.0,30.14,SSE,149,3.0,10.0,62,0.00,,,0.00,weatherlink.com 1.10,2013-06-05 18:03:00,
2013-06-05 14:18:00,67.0,51.0,30.13,SE,136,4.0,12.0,56,0.00,,,0.00,weatherlink.com 1.10,2013-06-05 18:18:00,
2013-06-05 14:33:00,66.9,53.0,30.14,SSW,207,4.0,12.0,61,0.00,,,0.00,weatherlink.com 1.10,2013-06-05 18:33:00,
2013-06-05 14:48:00,67.1,52.0,30.13,SSE,161,8.0,11.0,58,0.00,,,0.00,weatherlink.com 1.10,2013-06-05 18:48:00,
2013-06-05 15:03:00,66.7,50.0,30.13,South,180,4.0,12.0,55,0.00,,,0.00,weatherlink.com 1.10,2013-06-05 19:03:00,
2013-06-05 15:18:00,67.3,50.0,30.13,SSW,203,5.0,9.0,54,0.00,,,0.00,weatherlink.com 1.10,2013-06-05 19:18:00,
2013-06-05 15:34:00,66.5,49.0,30.13,SE,146,5.0,10.0,54,0.00,,,0.00,weatherlink.com 1.10,2013-06-05 19:34:00,
2013-06-05 15:49:00,66.1,49.0,30.11,SSE,162,4.0,12.0,55,0.00,,,0.00,weatherlink.com 1.10,2013-06-05 19:49:00,
2013-06-05 16:04:00,66.2,49.0,30.11,South,177,3.0,12.0,54,0.00,,,0.00,weatherlink.com 1.10,2013-06-05 20:04:00,
2013-06-05 16:19:00,65.8,50.0,30.11,SSE,148,7.0,13.0,58,0.00,,,0.00,weatherlink.com 1.10,2013-06-05 20:19:00,
2013-06-05 16:34:00,65.1,50.0,30.10,SE,129,6.0,12.0,58,0.00,,,0.00,weatherlink.com 1.10,2013-06-05 20:34:00,
2013-06-05 16:49:00,64.8,50.0,30.11,South,188,3.0,11.0,59,0.00,,,0.00,weatherlink.com 1.10,2013-06-05 20:49:00,
2013-06-05 17:04:00,64.4,51.0,30.11,SW,222,6.0,11.0,62,0.00,,,0.00,weatherlink.com 1.10,2013-06-05 21:04:00,
2013-06-05 17:19:00,64.1,50.0,30.11,SE,146,5.0,12.0,61,0.00,,,0.00,weatherlink.com 1.10,2013-06-05 21:19:00,
2013-06-05 17:34:00,63.3,49.0,30.11,SSW,207,7.0,9.0,61,0.00,,,0.00,weatherlink.com 1.10,2013-06-05 21:34:00,
2013-06-05 17:49:00,64.0,49.0,30.11,South,179,4.0,10.0,59,0.00,,,0.00,weatherlink.com 1.10,2013-06-05 21:49:00,
2013-06-05 18:04:00,64.1,50.0,30.11,SSW,205,4.0,10.0,60,0.00,,,0.00,weatherlink.com 1.10,2013-06-05 22:04:00,
2013-06-05 18:19:00,63.1,52.0,30.12,SE,145,3.0,9.0,67,0.00,,,0.00,weatherlink.com 1.10,2013-06-05 22:19:00,
2013-06-05 18:34:00,62.9,51.0,30.12,South,182,6.0,10.0,66,0.00,,,0.00,weatherlink.com 1.10,2013-06-05 22:34:00,
2013-06-05 18:49:00,62.1,52.0,30.12,SSW,196,3.0,6.0,69,0.00,,,0.00,weatherlink.com 1.10,2013-06-05 22:49:00,
2013-06-05 19:04:00,62.5,53.0,30.12,SSW,197,2.0,5.0,70,0.00,,,0.00,weatherlink.com 1.10,2013-06-05 23:04:00,
2013-06-05 19:19:00,61.9,52.0,30.13,SSW,204,8.0,8.0,70,0.00,,,0.00,weatherlink.com 1.10,2013-06-05 23:19:00,
2013-06-05 19:34:00,61.0,52.0,30.12,SSE,165,2.0,7.0,73,0.00,,,0.00,weatherlink.com 1.10,2013-06-05 23:34:00,
2013-06-05 19:49:00,59.4,52.0,30.12,SSE,150,0.0,6.0,76,0.00,,,0.00,weatherlink.com 1.10,2013-06-05 23:49:00,
2013-06-05 20:04:00,58.6,52.0,30.12,SSE,166,0.0,4.0,78,0.00,,,0.00,weatherlink.com 1.10,2013-06-06 00:04:00,
2013-06-05 20:19:00,57.9,52.0,30.13,South,186,2.0,5.0,80,0.00,,,0.00,weatherlink.com 1.10,2013-06-06 00:19:00,
2013-06-05 20:34:00,57.4,52.0,30.13,South,188,1.0,3.0,83,0.00,,,0.00,weatherlink.com 1.10,2013-06-06 00:34:00,
2013-06-05 20:49:00,57.4,53.0,30.13,SSW,193,2.0,5.0,84,0.00,,,0.00,weatherlink.com 1.10,2013-06-06 00:49:00,
2013-06-05 21:04:00,57.2,52.0,30.13,South,188,3.0,5.0,84,0.00,,,0.00,weatherlink.com 1.10,2013-06-06 01:04:00,
2013-06-05 21:19:00,57.0,53.0,30.14,SSW,210,1.0,3.0,85,0.00,,,0.00,weatherlink.com 1.10,2013-06-06 01:19:00,
2013-06-05 21:34:00,56.6,52.0,30.14,SSW,213,1.0,-999.0,85,-99.99,,,0.00,weatherlink.com 1.10,2013-06-06 01:34:00,
2013-06-05 21:49:00,56.3,52.0,30.14,South,188,0.0,4.0,85,0.00,,,0.00,weatherlink.com 1.10,2013-06-06 01:49:00,
2013-06-05 22:04:00,56.2,52.0,30.15,South,174,1.0,4.0,85,0.00,,,0.00,weatherlink.com 1.10,2013-06-06 02:04:00,
2013-06-05 22:20:00,56.2,52.0,30.14,SSE,167,1.0,4.0,85,0.00,,,0.00,weatherlink.com 1.10,2013-06-06 02:20:00,
2013-06-05 22:35:00,56.3,52.0,30.15,SSE,166,0.0,3.0,84,0.00,,,0.00,weatherlink.com 1.10,2013-06-06 02:35:00,
2013-06-05 22:50:00,56.1,52.0,30.14,SSW,207,0.0,4.0,85,0.00,,,0.00,weatherlink.com 1.10,2013-06-06 02:50:00,
2013-06-05 23:05:00,56.0,52.0,30.15,South,174,1.0,5.0,86,0.00,,,0.00,weatherlink.com 1.10,2013-06-06 03:05:00,
2013-06-05 23:20:00,56.0,52.0,30.14,SSW,198,0.0,4.0,87,0.00,,,0.00,weatherlink.com 1.10,2013-06-06 03:20:00,
2013-06-05 23:35:00,55.8,52.0,30.14,SE,141,0.0,3.0,88,0.00,,,0.00,weatherlink.com 1.10,2013-06-06 03:35:00,
2013-06-05 23:50:00,55.8,52.0,30.14,SSW,211,3.0,5.0,88,0.00,,,0.00,weatherlink.com 1.10,2013-06-06 03:50:00,